Simultaneous Nadir Overpasses (SNOs) Predictions

Prediction of SNOs between LANDSAT-8 and NOAA-19 Satellite Orbit:

Table of predicted SNOs for the next 14.0 days since TLE Epoch: 11/12/2016
Index Date (LANDSAT-8) Time (LANDSAT-8) Lat,Lon (LANDSAT-8) SZA (LANDSAT-8 ) Date (NOAA-19) Time (NOAA-19) Lat,Lon (NOAA-19) SZA (NOAA-19 ) Distance(km) Time Diff (sec)
1 11/14/2016 02:31:19 75.37, 148.69 93.82 11/14/2016 02:30:19 75.38, 148.59 93.81 2.68 60
2 11/14/2016 03:20:48 -75.30, -43.89 86.26 11/14/2016 03:21:12 -75.30, -43.87 86.25 0.50 24
3 11/16/2016 08:05:03 -75.38,-114.72 85.61 11/16/2016 08:04:09 -75.36,-114.77 85.64 2.59 54
4 11/16/2016 08:54:30 75.31, 52.73 94.32 11/16/2016 08:55:14 75.28, 52.73 94.30 3.80 44
5 11/18/2016 13:38:47 75.34, -18.27 94.88 11/18/2016 13:38:12 75.36, -18.22 94.90 2.79 35
6 11/18/2016 14:28:15 -75.32, 149.31 85.14 11/18/2016 14:29:06 -75.31, 149.23 85.15 2.62 51
7 11/20/2016 19:12:31 -75.39, 78.44 84.57 11/20/2016 19:12:04 -75.38, 78.30 84.59 3.98 27
8 11/20/2016 20:01:59 75.27,-114.27 95.30 11/20/2016 20:03:08 75.28,-114.13 95.33 4.04 69
9 11/23/2016 00:46:14 75.38, 174.98 95.89 11/23/2016 00:46:06 75.37, 174.87 95.88 2.94 8
10 11/23/2016 01:35:45 -75.21, -17.85 84.29 11/23/2016 01:36:57 -75.15, -17.15 84.31 21.12 72
11 11/25/2016 05:30:20 75.93, 105.51 96.94 11/25/2016 05:29:15 75.98, 102.14 96.85 91.14 65
12 11/25/2016 06:19:59 -75.37, -88.48 83.68 11/25/2016 06:19:58 -75.37, -88.53 83.68 1.58 1




NCC Satellite Simultaneous Nadir Overpasses (SNOs) Prediction Service
